This is the latest recevied weather packets stored in our database for station/object SP5MRF. If no packets are shown the sender has not sent any weather packets the latest 10 day(s).
| Time | Temp. | Humidity | Pressure | Rain* | Wind** | Luminosity | Snow |
|---|---|---|---|---|---|---|---|
| 1788014457 | 22.78° C | 70% | 1009.2 hPa | 0 mm | - | - | - |
| 1788013978 | 22.78° C | 71% | 1009.3 hPa | 0 mm | - | - | - |
| 1788013017 | 22.78° C | 70% | 1009.4 hPa | 0 mm | - | - | - |
| 1788012537 | 23.33° C | 71% | 1009.2 hPa | 0 mm | - | - | - |
| 1788012057 | 22.78° C | 74% | 1009.5 hPa | 0 mm | - | - | - |
| 1788011098 | 22.78° C | 75% | 1009.5 hPa | 0 mm | - | - | - |
| 1788010617 | 22.78° C | 75% | 1009.5 hPa | 0 mm | - | - | - |
| 1788009657 | 23.33° C | 75% | 1009.4 hPa | 0 mm | - | - | - |
| 1788009177 | 23.33° C | 78% | 1009.6 hPa | 0 mm | - | - | - |
| 1788008698 | 22.78° C | 80% | 1009.4 hPa | 0 mm | - | - | - |
| 1788008217 | 22.22° C | 81% | 1009.6 hPa | 0 mm | - | - | - |
| 1788007737 | 21.11° C | 83% | 1009.6 hPa | 0 mm | - | - | - |
| 1788007257 | 21.11° C | 85% | 1009.6 hPa | 0 mm | - | - | - |
| 1788006777 | 21.11° C | 87% | 1009.6 hPa | 0 mm | - | - | - |
| 1788006297 | 20° C | 89% | 1009.6 hPa | 0 mm | - | - | - |
| 1788005817 | 19.44° C | 90% | 1009.6 hPa | 0 mm | - | - | - |
| 1788005337 | 18.33° C | 90% | 1009.7 hPa | 0 mm | - | - | - |
| 1788004857 | 18.33° C | 90% | 1009.6 hPa | 0 mm | - | - | - |
| 1788004377 | 17.78° C | 90% | 1009.7 hPa | 0 mm | - | - | - |
| 1788003901 | 17.78° C | 90% | 1009.7 hPa | 0 mm | - | - | - |
| 1788003417 | 17.22° C | 90% | 1009.5 hPa | 0 mm | - | - | - |
| 1788002938 | 17.22° C | 90% | 1009.6 hPa | 0 mm | - | - | - |
| 1788002457 | 17.22° C | 89% | 1009.8 hPa | 0 mm | - | - | - |
| 1788001979 | 17.22° C | 89% | 1009.8 hPa | 0 mm | - | - | - |
| 1788001017 | 17.22° C | 89% | 1009.6 hPa | 0 mm | - | - | - |
* Rain latest hour (hover to see other rain measurements)
** Current wind speed in m/s (hover to see current wind gust speed)